COSMOS 1275 DEB

Satellite information

Favourite Embed

Satellite Type and Status

DEBRISIN ORBIT

Key statistics

Satellite COSMOS 1275 DEB at a glance.

Uptime

16264

Days in orbit

Revolutions

≈ 14.2

Per day

Orbit

LEO

Low Earth Orbit

Inclination

83.1

Latest

Satellite identification and parameters

Extended collection of information and parameters for COSMOS 1275 DEB.

Object identification

Identified? True

Debris? True

Object name: COSMOS 1275 DEB

International designator: 1981-053SK

Object number (NORAD): 42171

Object ID (CCSDS): 42171

Country: COMMONWEALTH OF INDEPENDENT STATES (CIS)

Current information (Y/N): Y

RCS size: SMALL

Orbital parameters

Period: 101.666 minutes

Inclination: 83.0816 deg

SMA: 7215.66 km

Apoapsis: 868.052 km

Periapsis: 806.997 km

RAAN: 14.9472 deg

Eccentricy: 0.00423072

Argument of periapsis: 205.6135 deg

Mean anomaly: 154.295 deg

Mean motion: 14.16409079 rev/day

Mean motion (dot): 0.00005882 rev/day2

B* drag term: 0.0029265195 1/REarth

Two-line elements (TLE)

Creation date: Dec. 11, 2025, 3:54 a.m.

Reference frame: TEME

Reference center: EARTH

Epoch: Dec. 10, 2025, 7:38 p.m. UTC

TLE line 0: 0 COSMOS 1275 DEB

TLE line 1: 1 42171U 81053SK 25344.81866800 .00005882 00000-0 29265-2 0 9996

TLE line 2: 2 42171 83.0816 14.9472 0042307 205.6135 154.2950 14.16409079 78662

Live tracking on map

Real-time ground track for satellite COSMOS 1275 DEB.

In-orbit conjunctions

A list of the most updated potential collisions computed for object COSMOS 1275 DEB.

Target Orbit TCA Probability of collision Miss distance Type
FENGYUN 1C DEB SSO 2025-11-01 16:34:57 0.000136389 113.0 (m) DEBRIS
COSMOS 1275 DEB LEO 2025-03-24 08:49:45 0.0002280419 62.0 (m) DEBRIS

Associated space launch

Navigation satellite providing location information for the Tsiklon-B navigation system

COSMOS 1275 DEB was lifted into orbit during the mission ‘Kosmos-3M | Parus 27’, on board a Kosmos-3M space rocket.

The launch took place on June 4, 1981, 3:41 p.m. from 132/2.

For more information about the launch, click the button.

Launch to space Kosmos-3M | Parus 27
Kosmos-3M | Parus 27

Agency: N/A

Status: Launch Successful

Launch date: June 4, 1981, 3:41 p.m. UTC

Rocket: Kosmos-3M

Launch pad: 132/2

Location: Plesetsk Cosmodrome, Russian Federation

...

Latest news about this satellite

There are no fresh news available about this satellite. Check back as we update our databases every day.


Newsletter sign-up

Weekly statistics, charts and insights to help you stay on top of the space industry.